תחנות METAR סמוכות

 

LLBG - Ben-Gurion(Civ/M, Israel
Distance from station: 'מ 83km
עודכן: 25/10/2020 19:20
Few Clouds
Few Clouds
 רוח מ 'ד
רוח: 'ד 9 km/h
טמפרטורה: 26°C
נקודת הטל: 22°C
לחות: 79%
ברומטר: 1012 hPa
עננים: Few Clouds
ראות: 10 km
Cloud details: Few Clouds 1006 m
2020/10/25 17:20 LLBG 251720Z 19005KT 9999 FEW033 26/22 Q1012 NOSIG
LLSD - Sde Dov Airport, Israel
Distance from station: 'מ 75km
עודכן: 30/06/2019 23:50
לא מעודכן
מעונן חלקית
מעונן חלקית
 רוח מ משתנה
רוח: משתנה 6 km/h
טמפרטורה: 27°C
עומס חום: 30°C
נקודת הטל: 23°C
לחות: 79%
ברומטר: 1007 hPa
עננים: מעונן חלקית
ראות: 10 km
Cloud details: מעונן חלקית 518 m
2019/06/30 20:50 LLSD 302050Z VRB03KT 9999 SCT017 27/23 Q1007
 
LLHA - Haifa (isr-Afb), Israel
Distance from station: 'צמ 129km
עודכן: 25/10/2020 18:50
בהיר
בהיר
 רוח מ משתנה
רוח: משתנה 2 km/h
טמפרטורה: 27°C
נקודת הטל: 9°C
לחות: 32%
ברומטר: 1010 hPa
סיכום: בהיר
ראות: greater than 10 km
2020/10/25 16:50 LLHA 251650Z VRB01KT CAVOK 27/09 Q1010 RMK FEW150
LLIB - Ben Ya Akov, Israel
Distance from station: 'צמ 183km
עודכן: 31/03/2020 16:50
לא מעודכן
בהיר
בהיר
 רוח מ 'ד
רוח: 'ד 11 km/h
טמפרטורה: 25°C
נקודת הטל: 8°C
לחות: 34%
ברומטר: 1006 hPa
סיכום: בהיר
ראות: greater than 10 km
2020/03/31 13:50 LLIB 311350Z 19006KT 120V250 CAVOK 25/08 Q1006
 
LLOV - Ovda (isr-Afb/Ci, Israel
Distance from station: 'דדמ 246km
עודכן: 31/03/2019 22:50
לא מעודכן
בהיר
בהיר
 רוח מ 'מדמ
רוח: 'מדמ 13 km/h
טמפרטורה: 12°C
נקודת הטל: 0°C
לחות: 44%
ברומטר: 1012 hPa
סיכום: בהיר
ראות: greater than 10 km
2019/03/31 19:50 LLOV 311950Z 24007KT CAVOK 12/00 Q1012
LLET - Elat/J. Hozman(A, Israel
Distance from station: 'דדמ 287km
עודכן: 18/03/2019 17:50
לא מעודכן
בהיר
בהיר
 רוח מ 'צצמ
רוח: 'צצמ 30 km/h
טמפרטורה: 24°C
נקודת הטל: -1°C
לחות: 19%
ברומטר: 1016 hPa
סיכום: בהיר
ראות: greater than 10 km
2019/03/18 15:50 LLET 181550Z 02016KT CAVOK 24/M01 Q1016
 
LCLK - Larnaca/Larnax A, Cyprus
Distance from station: 'צ 321km
עודכן: 25/10/2020 19:00
בהיר
בהיר
 רוח מ 'צצמ
רוח: 'צצמ 11 km/h
טמפרטורה: 25°C
נקודת הטל: 21°C
לחות: 79%
ברומטר: 1012 hPa
סיכום: בהיר
ראות: greater than 10 km
2020/10/25 17:00 LCLK 251700Z 33006KT CAVOK 25/21 Q1012 NOSIG